Regional Weather Roundup
Issued by NWS

Home | Current Version | Previous Version | Graphics & Text | Print | Product List | Glossary On
Versions: 1 2 3 4 5 6 7 8 9 10 11 12 13 14 15 16 17 18 19 20 21 22 23 24 25 26 27
000
ASUS45 KBOU 292007
RWRCO

WEATHER ROUNDUP FOR COLORADO
NATIONAL WEATHER SERVICE DENVER/BOULDER CO
200 PM MDT SAT APR 29 2017

NOTE: "FAIR" INDICATES FEW OR NO CLOUDS BELOW 12000 FEET WITH NO
SIGNIFICANT WEATHER AND/OR OBSTRUCTIONS TO VISIBILITY.

COZ001>005-013-030-031-292100-
...NORTHWEST COLORADO...

CITY           SKY/WX    TMP DP  RH WIND       PRES   REMARKS
CRAIG          FAIR      45  19  35 E13G21    30.10F
HAYDEN         PTSUNNY   39  19  45 E9G18     30.11S
MEEKER         FAIR      46  23  40 NE6G17    30.07F
MOUNT WERNER   NOT AVBL
STEAMBOAT SPGS CLOUDY    37  21  51 E9        30.10F
WALDEN           N/A     30  18  59 NE10      30.14S WCI  21
$$

COZ006>008-011-292100-
...WEST CENTRAL VALLEYS...

CITY           SKY/WX    TMP DP  RH WIND       PRES   REMARKS
GRAND JUNCTION CLOUDY    51  21  30 N14G22    30.03F
MONTROSE       FLURRIES  39  32  76 S3        30.04R
EAGLE          CLOUDY    37  18  44 W12       30.09F
RIFLE          CLOUDY    43  26  51 NW7       30.08S
DELTA          CLOUDY    53  28  39 W16       30.00S
NUCLA          CLOUDY    46  19  34 N13       30.03R
$$

COZ017>023-064>068-292100-
...SOUTHWEST COLORADO...

CITY           SKY/WX    TMP DP  RH WIND       PRES   REMARKS
DURANGO        FAIR      42  22  44 E9        29.94S
CORTEZ         CLOUDY    45  33  63 SW15      29.94F
PAGOSA SPRINGS FAIR      41  16  35 NE13G22   29.93F
TELLURIDE      CLOUDY    33  20  60 CALM      29.99S
WOLF CREEK PAS NOT AVBL
$$

COZ009-010-012-014-032>034-037-058>063-292100-
...CENTRAL COLORADO...

CITY           SKY/WX    TMP DP  RH WIND       PRES   REMARKS
ASPEN          LGT SNOW  34  24  67 N9        30.03S WCI  27
BUENA VISTA    CLOUDY    30  18  59 CALM      30.05F
COPPER MTN     CLOUDY    19  10  68 CALM      30.03S HAZE
BERTHOUD PASS  LGT SNOW  10   0  61 N12       30.03S VSB 1   WCI  -4
COTTONWOOD PAS CLOUDY    27  14  59 CALM      30.04S
GUNNISON       NOT AVBL
KREMMLING      LGT SNOW  34  28  80 N7        30.12S WCI  28
LEADVILLE      CLOUDY    23  14  68 N8        30.02S WCI  14
MONARCH PASS   CLOUDY    12  10  92 E35       30.04R WCI -10
SALIDA         CLOUDY    32  23  67 CALM      30.13F
SUNLIGHT       CLOUDY    21  14  73 CALM      30.09S
WILKERSON PASS CLOUDY   N/A N/A N/A NE8       30.03F
$$

COZ069>075-292100-
...SAN LUIS VALLEY/SANGRE DE CRISTO MOUNTAINS...

CITY           SKY/WX    TMP DP  RH WIND       PRES   REMARKS
ALAMOSA        LGT SNOW  32  18  56 N12G20    29.97R WCI  23
LA VETA PASS   SNOW      19  18  93 NE10G22   30.06R VSB 1/2 WCI   8
SAGUACHE       CLOUDY    36  12  38 NE13G20   29.99R
$$

COZ035-036-038>040-292100-
...NORTHERN COLORADO FRONT RANGE...

CITY           SKY/WX    TMP DP  RH WIND       PRES   REMARKS
DENVER INTL AP LGT SNOW  31  26  82 N18       30.16S VSB 3/4 WCI  19
DMNS CITY PARK   N/A     30  30  98 N6G16     30.18S WCI  24
AURORA         LGT SNOW  29  29  98 N17       30.16S FOG     WCI  17
FRONT RANGE AP LGT SNOW  32  30  93 N17       30.16S VSB 1   WCI  21
ERIE MUNI ARPT LGT SNOW  32  30  90 N16G22    30.19S WCI  22
BOULDER MUN AP CLOUDY    34  27  75 N10       30.19F WCI  26
CENTENNIAL     LGT SNOW  28  26  92 N15       30.15S VSB 3/4 WCI  16
BROOMFIELD     LGT SNOW  32  28  86 N15       30.18S VSB 1   WCI  22
FORT COLLINS   LGT RAIN  35  29  78 NW12      30.21R WCI  27
LONGMONT       CLOUDY    36  32  84 N10       30.22S FOG
$$

COZ041-046-047-076>085-087-088-292100-
...PIKES PEAK/PALMER DIVIDE AND SOUTHERN FOOTHILLS...

CITY           SKY/WX    TMP DP  RH WIND       PRES   REMARKS
COLO. SPRINGS  LGT SNOW  32  24  72 N26G39    30.06F FOG     WCI  18
A. F. ACADEMY  MIX PCPN  28  23  82 N18G32    30.08S WCI  15
SCHRIEVER AFB  FLURRIES  29  23  78 N28G38    30.05F WCI  14
ELLICOTT       LGT SNOW N/A N/A N/A N29G38    30.05R
FALCON         LGT SNOW  29  21  73 N21G32    30.07F WCI  15
FORT CARSON    NOT AVBL
LIMON          LGT SNOW  29  26  89 N31G37    30.09R FOG     WCI  13
MONUMENT HILL  CLOUDY    25  21  86 N17G26    30.11S WCI  11
TRINIDAD       LGT SNOW  30  25  81 N20       30.04S VSB 3/4 WCI  17
$$

COZ042>045-048>051-090-091-292100-
...NORTHEAST COLORADO...

CITY           SKY/WX    TMP DP  RH WIND       PRES   REMARKS
GREELEY ARPT   PTSUNNY   36  27  69 N15       30.20S
AKRON          CLOUDY    39  20  46 N22G28    30.12S
BURLINGTON     NOT AVBL
WRAY           NOT AVBL
STERLING       CLOUDY    43  21  42 NE20G25   30.13S
HOLYOKE        FAIR      45  27  49 NE22G30   30.14S
FORT MORGAN    CLOUDY    42  17  37 N20       30.16S
$$

COZ086-089-092>099-292100-
...SOUTHEAST COLORADO...

CITY           SKY/WX    TMP DP  RH WIND       PRES   REMARKS
PUEBLO         LGT SNOW  34  29  82 N15       30.10S VSB 3/4 WCI  24
LA JUNTA       LGT SNOW  35  30  82 N22G29    30.05S VSB 3/4 WCI  23
LAMAR          CLOUDY    36  30  79 N22       29.99F
SPRINGFIELD      N/A     31  29  92 N31       29.95R WCI  16
$$




USA.gov is the U.S. government's official web portal to all federal, state and local government web resources and services.